Location: Gold Fund Mine
(38.3819°N, 119.0996°W)
Time: 23:56:55
(UTC+00:00)

Cosmos 44 - Pass Details

Date: 18 September 2020
Orbit: 580 x 781 km, 65.1° (Epoch: 20 October)

Event Time Altitude Azimuth Distance (km) Brightness Sun altitude
Exits shadow 12:38:50 18° 276° (W) 1,497 4.4 -12.9°
Maximum altitude 12:40:42 24° 312° (NW) 1,299 4.4 -12.6°
Drops below altitude 10° 12:44:24 10° 6° (N) 2,036 5.9 -11.9°
Sets 12:47:10 0° 20° (NNE) 2,988 7.0 -11.3°
